GW5177 Weather Reports


time (UTC)temp
C
wind
direction
speed
KPH
gust
KPH
rain 1hr
cm
rain 24hr
cm
rain mn
cm
humidity
%
barometer
mb
20260504160244 18 66 0.0 1.6 0.00 0.05 0.05 71 1015.1
20260504150710 16 22 1.6 1.6 0.00 0.05 0.05 76 1015.6
20260504150207 16 22 0.0 3.2 0.00 0.05 0.05 81 1015.6
20260504141136 13 22 0.0 3.2 0.30 0.05 0.05 85 1016.2
20260504140633 13 39 0.0 0.0 0.30 0.05 0.05 78 1016.3
20260504140128 14 39 0.0 0.0 0.00 0.00 0.00 70 1016.0
20260504130557 13 5 0.0 6.4 0.00 0.00 0.00 71 1015.5
20260504110444 5 59 0.0 0.0 0.00 0.00 0.00 99 1015.4
20260504100401 3 59 0.0 0.0 0.00 0.00 0.00 99 1015.3
20260504081754 5 59 0.0 0.0 0.00 0.00 0.00 98 1015.8
20260504081250 5 59 0.0 0.0 0.00 0.00 0.00 98 1015.9
20260504080747 5 59 0.0 0.0 0.00 0.00 0.00 98 1015.9
20260504080243 5 59 0.0 0.0 0.00 0.00 0.00 98 1015.9
20260504070211 6 59 0.0 0.0 0.00 0.00 0.00 97 1016.5
20260504060131 7 59 0.0 0.0 0.00 0.00 0.00 95 1016.9
20260504050559 8 59 0.0 0.0 0.00 0.00 0.00 93 1017.4
20260504045553 8 59 0.0 0.0 0.00 0.00 0.00 92 1017.6
20260504045048 8 59 0.0 0.0 0.00 0.00 0.00 92 1017.4
20260504044546 8 59 0.0 0.0 0.00 0.00 0.00 91 1017.7
20260504044043 8 59 0.0 0.0 0.00 0.00 0.00 91 1017.7
20260504043540 8 59 0.0 0.0 0.00 0.00 0.00 90 1017.6
20260504043037 8 59 0.0 0.0 0.00 0.00 0.00 90 1017.5
20260504042534 8 59 0.0 0.0 0.00 0.00 0.00 90 1017.5
20260504042031 8 59 0.0 0.0 0.00 0.00 0.00 89 1017.7
20260504041527 8 59 0.0 0.0 0.00 0.00 0.00 88 1017.6
20260504041023 8 59 0.0 0.0 0.00 0.00 0.00 87 1017.8
20260504040521 8 59 0.0 0.0 0.00 0.00 0.00 87 1017.8
20260504040018 8 59 0.0 0.0 0.00 0.00 0.00 86 1017.7
20260504035515 8 59 0.0 0.0 0.00 0.00 0.00 84 1017.7
20260504035011 8 59 0.0 0.0 0.00 0.00 0.00 82 1017.7
20260504034509 8 59 0.0 0.0 0.00 0.00 0.00 81 1017.4
20260504034005 8 59 0.0 1.6 0.00 0.00 0.00 80 1017.4
20260504033503 8 57 0.0 0.0 0.00 0.00 0.00 80 1017.5
20260504033000 8 57 0.0 0.0 0.00 0.00 0.00 81 1017.8
20260504032457 8 57 0.0 0.0 0.00 0.00 0.00 81 1017.7
20260504031954 8 57 0.0 0.0 0.00 0.00 0.00 81 1017.8
20260504031450 8 57 0.0 0.0 0.00 0.00 0.00 82 1017.6
20260504030947 8 57 0.0 0.0 0.00 0.00 0.00 80 1017.4
20260504030444 8 57 0.0 0.0 0.00 0.00 0.00 79 1017.7
20260504025940 8 57 0.0 0.0 0.00 0.00 0.00 79 1017.8
20260504025437 8 57 0.0 0.0 0.00 0.00 0.00 78 1017.7
20260504024934 8 57 0.0 0.0 0.00 0.00 0.00 77 1017.7
20260504024431 8 57 0.0 0.0 0.00 0.00 0.00 77 1017.7
20260504023928 8 57 0.0 0.0 0.00 0.00 0.00 78 1017.5
20260504023425 8 57 0.0 0.0 0.00 0.00 0.00 78 1017.6
20260504022920 8 57 0.0 0.0 0.00 0.00 0.00 77 1017.7
20260504022417 8 57 0.0 0.0 0.00 0.00 0.00 78 1017.4
20260504021914 8 57 0.0 0.0 0.00 0.00 0.00 77 1017.3
20260504021411 8 57 0.0 0.0 0.00 0.00 0.00 77 1017.2
20260504020908 8 57 0.0 0.0 0.00 0.00 0.00 78 1017.2
20260504020404 8 57 0.0 0.0 0.00 0.00 0.00 76 1017.1
20260504015901 8 57 0.0 0.0 0.00 0.00 0.00 76 1017.1
20260504015357 8 57 0.0 0.0 0.00 0.00 0.00 76 1017.1
20260504014853 8 57 0.0 0.0 0.00 0.00 0.00 75 1017.0
20260504014349 8 57 0.0 0.0 0.00 0.00 0.00 74 1017.3
20260504013847 8 57 0.0 0.0 0.00 0.00 0.00 74 1017.0
20260504013345 8 57 0.0 0.0 0.00 0.00 0.00 72 1017.0
20260504012841 8 57 0.0 0.0 0.00 0.00 0.00 72 1017.2
20260504012339 8 57 0.0 0.0 0.00 0.00 0.00 72 1016.9
20260504011836 8 57 0.0 0.0 0.00 0.00 0.00 69 1016.9
20260504011332 8 57 0.0 0.0 0.00 0.00 0.00 70 1017.0
20260504010829 9 57 0.0 0.0 0.00 0.00 0.00 68 1017.1
20260504010324 9 57 0.0 0.0 0.00 0.00 0.00 69 1017.2
20260504005821 9 57 0.0 0.0 0.00 0.00 0.00 67 1017.2
20260504005318 9 57 0.0 0.0 0.00 0.00 0.00 67 1017.2
20260504004816 10 57 0.0 0.0 0.00 0.00 0.00 66 1017.1
20260504004313 10 57 0.0 0.0 0.00 0.00 0.00 64 1017.2
20260504003809 10 57 0.0 0.0 0.00 0.00 0.00 63 1017.1
20260504003307 10 57 0.0 0.0 0.00 0.00 0.00 62 1017.0
20260504002803 10 57 0.0 0.0 0.00 0.00 0.00 61 1016.9
20260504002300 11 57 0.0 0.0 0.00 0.00 0.00 58 1016.8
20260504001758 11 57 0.0 0.0 0.00 0.00 0.00 58 1016.9
20260504001254 11 57 0.0 0.0 0.00 0.00 0.00 56 1017.0
20260504000751 12 57 0.0 0.0 0.00 0.00 0.00 54 1017.0
20260504000248 12 57 0.0 0.0 0.00 0.00 0.00 56 1016.9
20260503235746 13 57 0.0 0.0 0.00 0.00 0.00 48 1016.8
20260503235243 13 57 0.0 0.0 0.00 0.00 0.00 49 1016.9
20260503234741 13 57 0.0 0.0 0.00 0.00 0.00 48 1016.8
20260503234239 14 57 0.0 0.0 0.00 0.00 0.00 47 1016.9
20260503233735 14 57 0.0 0.0 0.00 0.00 0.00 49 1016.8
20260503233231 15 57 0.0 0.0 0.00 0.00 0.00 47 1016.8
20260503232728 15 57 0.0 0.0 0.00 0.00 0.00 47 1016.7
20260503232226 15 57 0.0 0.0 0.00 0.00 0.00 45 1017.2
20260503231724 15 57 0.0 0.0 0.00 0.00 0.00 38 1017.1
20260503231220 16 57 0.0 0.0 0.00 0.00 0.00 41 1017.0
20260503230716 16 57 0.0 1.6 0.00 0.00 0.00 39 1017.1
20260503230214 16 57 0.0 0.0 0.00 0.00 0.00 41 1017.5
20260503225711 16 57 0.0 0.0 0.00 0.00 0.00 37 1017.3
20260503225206 16 268 0.0 1.6 0.00 0.00 0.00 36 1017.2
20260503224704 16 267 0.0 1.6 0.00 0.00 0.00 34 1017.4
20260503224201 16 268 0.0 1.6 0.00 0.00 0.00 33 1017.4
20260503223659 17 290 0.0 4.8 0.00 0.00 0.00 34 1017.7
20260503223156 17 341 1.6 4.8 0.00 0.00 0.00 35 1017.6
20260503222652 17 242 0.0 0.0 0.00 0.00 0.00 37 1017.3
20260503222150 17 246 0.0 3.2 0.00 0.00 0.00 34 1017.1
20260503221648 18 294 0.0 3.2 0.00 0.00 0.00 32 1017.5
20260503221145 19 38 1.6 1.6 0.00 0.00 0.00 32 1017.3
20260503220642 18 41 1.6 3.2 0.00 0.00 0.00 32 1017.2
20260503220138 19 58 1.6 3.2 0.00 0.00 0.00 31 1017.5
20260503215636 20 301 3.2 4.8 0.00 0.00 0.00 34 1017.3
20260503215132 19 338 1.6 9.7 0.00 0.00 0.00 32 1017.5
20260503214631 20 230 0.0 4.8 0.00 0.00 0.00 31 1017.5
20260503214126 20 129 0.0 4.8 0.00 0.00 0.00 29 1017.4
20260503213626 19 121 3.2 6.4 0.00 0.00 0.00 30 1017.7
20260503213122 19 278 0.0 3.2 0.00 0.00 0.00 32 1017.5
20260503212620 20 144 1.6 3.2 0.00 0.00 0.00 30 1017.5
20260503212117 20 264 3.2 4.8 0.00 0.00 0.00 29 1017.4
20260503211615 21 244 0.0 4.8 0.00 0.00 0.00 35 1017.6
20260503211110 22 151 1.6 1.6 0.00 0.00 0.00 32 1017.4
20260503210606 20 79 0.0 1.6 0.00 0.00 0.00 40 1017.6
20260503205553 20 252 0.0 4.8 0.00 0.00 0.00 36 1017.8
20260503205049 19 177 1.6 4.8 0.00 0.00 0.00 31 1017.7
20260503204546 19 13 3.2 3.2 0.00 0.00 0.00 33 1017.7
20260503204043 20 232 1.6 4.8 0.00 0.00 0.00 34 1017.8
20260503203535 19 11 1.6 3.2 0.00 0.00 0.00 30 1017.9
20260503203032 20 299 1.6 3.2 0.00 0.00 0.00 31 1018.0
20260503202530 20 180 1.6 4.8 0.00 0.00 0.00 33 1018.1
20260503202027 20 8 3.2 3.2 0.00 0.00 0.00 33 1018.2
20260503201520 21 137 0.0 6.4 0.00 0.00 0.00 33 1018.3
20260503201017 19 62 0.0 1.6 0.00 0.00 0.00 37 1018.3
20260503200513 18 122 1.6 3.2 0.00 0.00 0.00 33 1018.7
20260503200009 18 74 0.0 3.2 0.00 0.00 0.00 40 1018.6
20260503195506 19 239 3.2 11.3 0.00 0.00 0.00 31 1018.6
20260503195002 18 275 0.0 1.6 0.00 0.00 0.00 37 1018.7
20260503194500 18 246 1.6 1.6 0.00 0.00 0.00 36 1019.0
20260503193955 18 90 0.0 11.3 0.00 0.00 0.00 40 1018.9
20260503193451 18 273 0.0 9.7 0.00 0.00 0.00 33 1019.2
20260503192946 20 198 1.6 4.8 0.00 0.00 0.00 31 1019.2
20260503192443 19 200 0.0 1.6 0.00 0.00 0.00 37 1019.4
20260503191938 18 76 0.0 0.0 0.00 0.00 0.00 38 1019.3
20260503191436 18 220 0.0 1.6 0.00 0.00 0.00 39 1019.6
20260503190932 19 296 1.6 3.2 0.00 0.00 0.00 35 1019.7
20260503190430 18 63 0.0 1.6 0.00 0.00 0.00 35 1019.8
20260503185927 17 105 0.0 3.2 0.00 0.00 0.00 36 1019.8
20260503185423 17 150 1.6 6.4 0.00 0.00 0.00 36 1019.7
20260503184922 18 238 1.6 3.2 0.00 0.00 0.00 37 1020.0
20260503184420 17 256 1.6 4.8 0.00 0.00 0.00 43 1020.0
20260503183916 17 254 1.6 6.4 0.00 0.00 0.00 37 1020.2
20260503183412 18 355 0.0 1.6 0.00 0.00 0.00 44 1020.4
20260503182910 17 108 0.0 4.8 0.00 0.00 0.00 44 1020.3
20260503182409 16 111 0.0 1.6 0.00 0.00 0.00 45 1020.4
20260503181905 16 216 3.2 6.4 0.00 0.00 0.00 43 1020.4
20260503181402 16 250 4.8 6.4 0.00 0.00 0.00 38 1020.6
20260503180858 16 212 0.0 1.6 0.00 0.00 0.00 46 1020.7
20260503180356 17 271 4.8 4.8 0.00 0.00 0.00 36 1020.7
20260503175853 17 228 0.0 3.2 0.00 0.00 0.00 47 1020.8
20260503175351 15 55 0.0 4.8 0.00 0.00 0.00 46 1020.9
20260503174846 16 174 1.6 4.8 0.00 0.00 0.00 35 1020.9
20260503174345 16 264 1.6 9.7 0.00 0.00 0.00 36 1020.8
20260503173845 16 25 0.0 4.8 0.00 0.00 0.00 51 1021.0
20260503173342 15 84 0.0 3.2 0.00 0.00 0.00 47 1020.9
20260503172838 16 226 3.2 6.4 0.00 0.00 0.00 37 1021.1
20260503172336 15 61 0.0 3.2 0.00 0.00 0.00 50 1021.3
20260503171832 15 249 1.6 9.7 0.00 0.00 0.00 41 1021.1
20260503171329 14 294 4.8 9.7 0.00 0.00 0.00 41 1021.3
20260503170826 15 64 3.2 6.4 0.00 0.00 0.00 38 1021.2
20260503170323 16 76 0.0 1.6 0.00 0.00 0.00 43 1021.3